Content
SEND FEEDBACK

Daily
Averages
Monthly
Summary
United States of America

BASSETT, KANSAS


Home > North America > United States > Kansas
Elevation: 960 feet     Latitude: 37 55N     Longitude: 095 24W

WEATHER
 
SELECT A DAY
Number of Records: 197,147;   Date Range: 1/1/95 - 9/18/14
 
SHARE

PRINT THIS DATA

[ ← Previous Day ]
WEATHER ALMANAC - JANUARY 23, 2013
[ Next Day → ]
[ °C ]   °F
Weather ElementAverageHighLow
Temperature35.1 °F54 °F (3:52 pm)18 °F (4:52 am)
Dewpoint22.8 °F30.9 °F (12:52 pm)14 °F (6:52 am)
Humidity63.5 %88 % (4:52 am)38 % (3:52 pm)
Barometer30.25 in30.34 in (10:52 pm)30.17 in (4:52 pm)
Wind Speed4.4 mph13.8 mph (8:52 pm)
Wind Gust23 mph (11:52 pm)
Weather ElementAverage
Visibility9.8 mi
Wind DirectionENE (61.3 °)

Weather ElementTotal
Precipitation---
Heating Degree Days29 (Base 65)
Averaged from 23 records on January 23, 2013
WEATHER CONDITIONS BREAKOUT
WIND DIRECTION BREAKOUT
WEATHER BY HOUR - JANUARY 23, 2013
[ °C ]   °F
Local TimeTemperatureDewpointHumidityBarometerVisibilityWind DirectionWind SpeedGust SpeedPrecipitationEventsConditions
1:52 AM21.9 °F15.1 °F75 %30.27 in10.0 miCalmClear
2:52 AM19.9 °F15.1 °F81 %30.27 in10.0 miCalmClear
3:52 AM19.9 °F16.0 °F85 %30.25 in10.0 miCalmClear
4:52 AM18.0 °F15.1 °F88 %30.24 in10.0 miCalmClear
5:52 AM19.0 °F15.1 °F85 %30.25 in10.0 miCalmClear
6:52 AM18.0 °F14.0 °F84 %30.27 in9.0 miCalmClear
7:52 AM18.0 °F15.1 °F88 %30.26 in9.0 miCalmClear
8:52 AM26.1 °F19.9 °F78 %30.25 in9.0 miCalmClear
9:52 AM33.1 °F25.0 °F72 %30.26 in9.0 miSouth (170°)3.5 mphClear
10:52 AM41.0 °F28.0 °F60 %30.26 in10.0 miSW (220°)9.2 mphClear
11:52 AM45.0 °F30.0 °F56 %30.23 in10.0 miSW (230°)5.8 mphClear
12:52 PM48.0 °F30.9 °F52 %30.21 in10.0 miNW (310°)4.6 mphClear
1:52 PM51.1 °F30.9 °F46 %30.18 in10.0 miNorthClear
2:52 PM53.1 °F30.0 °F41 %30.18 in10.0 miCalmClear
3:52 PM54.0 °F28.9 °F38 %30.19 in10.0 miWNW (300°)3.5 mphClear
4:52 PM53.1 °F28.9 °F40 %30.17 in10.0 miCalmClear
5:52 PM39.9 °F27.0 °F60 %30.20 in10.0 miCalmClear
6:52 PM44.1 °F28.0 °F53 %30.25 in10.0 miNNE (20°)5.8 mphClear
7:52 PM42.1 °F24.1 °F49 %30.26 in10.0 miNE (40°)10.4 mphClear
8:52 PM39.0 °F24.1 °F55 %30.30 in10.0 miNNE (30°)13.8 mphClear
9:52 PM36.0 °F21.9 °F57 %30.31 in10.0 miNNE (30°)12.7 mphClear
10:52 PM34.0 °F21.0 °F59 %30.34 in10.0 miNNE (30°)13.8 mph19.6 mphClear
11:52 PM33.1 °F19.9 °F59 %30.34 in10.0 miNNE (30°)12.7 mph23.0 mphClear
Hourly data recorded from KCNU, located miles away from Bassett, Kansas







STORIES FROM OUR PARTNERS